EW1134 Weather Reports


Display with metric or nautical units.
time (UTC)temp
F
wind
direction
speed
MPH
gust
MPH
rain 1hr
in
rain 24hr
in
rain mn
in
humidity
%
barometer
mb
20260506222504 56 225 1.0 4.0 0.00 0.00 0.00 74 1016.2
20260506222004 56 225 1.0 4.0 0.00 0.00 0.00 74 1016.5
20260506221504 56 0 0.0 0.0 0.00 0.00 0.00 74 1016.2
20260506221004 57 0 0.0 0.0 0.00 0.00 0.00 74 1016.2
20260506220504 57 0 0.0 0.0 0.00 0.00 0.00 74 1016.2
20260506220005 57 0 0.0 0.0 0.00 0.00 0.00 74 1016.4
20260506215504 57 0 0.0 0.0 0.00 0.00 0.00 74 1016.5
20260506215005 57 0 0.0 0.0 0.00 0.00 0.00 74 1016.5
20260506214504 58 135 0.0 2.0 0.00 0.00 0.00 74 1016.2
20260506214004 58 98 1.0 3.0 0.00 0.00 0.00 74 1016.2
20260506213503 58 78 1.0 4.0 0.00 0.00 0.00 74 1016.3
20260506213004 58 67 1.0 4.0 0.00 0.00 0.00 74 1016.2
20260506212503 58 118 0.0 3.0 0.00 0.00 0.00 73 1016.4
20260506212004 58 135 0.0 3.0 0.00 0.00 0.00 73 1016.3
20260506211504 58 135 0.0 3.0 0.00 0.00 0.00 72 1016.3
20260506211004 59 114 1.0 4.0 0.00 0.00 0.00 71 1016.3
20260506210504 59 106 1.0 4.0 0.00 0.00 0.00 70 1016.5
20260506210005 59 90 0.0 2.0 0.00 0.00 0.00 69 1016.5
20260506205505 59 0 0.0 0.0 0.00 0.00 0.00 69 1016.5
20260506205004 59 150 0.0 1.0 0.00 0.00 0.00 68 1016.6
20260506204504 60 202 0.0 4.0 0.00 0.00 0.00 68 1016.4
20260506204004 60 195 1.0 4.0 0.00 0.00 0.00 68 1016.6
20260506203005 60 223 1.0 4.0 0.00 0.00 0.00 67 1016.7
20260506201504 61 181 0.0 3.0 0.00 0.00 0.00 65 1016.6
20260506201005 61 203 1.0 4.0 0.00 0.00 0.00 66 1016.6
20260506200504 61 218 1.0 4.0 0.00 0.00 0.00 66 1016.5
20260506200004 61 216 1.0 3.0 0.00 0.00 0.00 67 1016.3
20260506195504 61 216 1.0 3.0 0.00 0.00 0.00 66 1016.5
20260506195004 62 201 1.0 4.0 0.00 0.00 0.00 66 1016.4
20260506194504 62 199 1.0 4.0 0.00 0.00 0.00 66 1016.4
20260506193504 62 312 0.0 2.0 0.00 0.00 0.00 67 1016.4
20260506193004 62 310 0.0 4.0 0.00 0.00 0.00 67 1016.2
20260506192503 62 312 1.0 4.0 0.00 0.00 0.00 66 1016.2
20260506192003 62 311 2.0 4.0 0.00 0.00 0.00 66 1016.3
20260506191505 62 311 2.0 5.0 0.00 0.00 0.00 66 1016.0
20260506191003 63 314 1.0 5.0 0.00 0.00 0.00 65 1015.8
20260506190503 63 320 1.0 4.0 0.00 0.00 0.00 65 1015.7
20260506185504 63 331 2.0 5.0 0.00 0.00 0.00 65 1016.0
20260506185004 63 324 2.0 5.0 0.00 0.00 0.00 65 1015.6
20260506184004 63 303 3.0 6.0 0.00 0.00 0.00 65 1015.7
20260506183504 63 305 2.0 6.0 0.00 0.00 0.00 65 1015.7
20260506183005 63 309 1.0 4.0 0.00 0.00 0.00 65 1015.4
20260506182503 63 315 2.0 6.0 0.00 0.00 0.00 65 1015.4
20260506182003 64 311 2.0 6.0 0.00 0.00 0.00 65 1015.5
20260506181504 64 309 2.0 5.0 0.00 0.00 0.00 65 1015.4
20260506181003 64 316 2.0 5.0 0.00 0.00 0.00 65 1015.3
20260506180503 64 317 2.0 4.0 0.00 0.00 0.00 65 1015.2
20260506180005 64 320 2.0 4.0 0.00 0.00 0.00 65 1015.1
20260506175504 64 325 1.0 4.0 0.00 0.00 0.00 65 1015.2
20260506175004 64 317 1.0 4.0 0.00 0.00 0.00 65 1015.0
20260506174504 64 317 2.0 4.0 0.00 0.00 0.00 65 1015.0
20260506174004 64 332 2.0 4.0 0.00 0.00 0.00 65 1015.0
20260506173503 65 340 2.0 5.0 0.00 0.00 0.00 64 1015.0
20260506173005 65 341 2.0 5.0 0.00 0.00 0.00 64 1014.9
20260506172504 66 355 2.0 6.0 0.00 0.00 0.00 63 1015.0
20260506172004 66 18 2.0 6.0 0.00 0.00 0.00 62 1014.9
20260506171504 67 9 2.0 5.0 0.00 0.00 0.00 61 1014.9
20260506171004 67 1 2.0 5.0 0.00 0.00 0.00 60 1014.9
20260506170503 68 350 1.0 4.0 0.00 0.00 0.00 58 1014.6
20260506170004 69 331 1.0 5.0 0.00 0.00 0.00 56 1014.7
20260506165504 69 324 1.0 8.0 0.00 0.00 0.00 55 1014.5
20260506165004 70 314 2.0 8.0 0.00 0.00 0.00 54 1014.7
20260506164504 70 322 2.0 8.0 0.00 0.00 0.00 53 1014.6
20260506164003 71 329 2.0 5.0 0.00 0.00 0.00 51 1014.6
20260506163503 72 357 2.0 5.0 0.00 0.00 0.00 49 1014.5
20260506163005 72 27 2.0 4.0 0.00 0.00 0.00 48 1014.6
20260506162504 72 4 1.0 4.0 0.00 0.00 0.00 47 1014.4
20260506162003 73 349 2.0 4.0 0.00 0.00 0.00 47 1014.3
20260506161504 73 352 3.0 6.0 0.00 0.00 0.00 46 1014.4
20260506161004 74 339 3.0 6.0 0.00 0.00 0.00 46 1014.4
20260506160005 75 344 4.0 7.0 0.00 0.00 0.00 44 1014.5
20260506155503 76 355 4.0 8.0 0.00 0.00 0.00 43 1014.2
20260506155004 76 330 3.0 8.0 0.00 0.00 0.00 41 1014.4
20260506154003 76 323 3.0 6.0 0.00 0.00 0.00 42 1014.4
20260506153504 76 330 2.0 6.0 0.00 0.00 0.00 41 1014.3
20260506153004 76 319 2.0 5.0 0.00 0.00 0.00 40 1014.5
20260506152504 76 335 2.0 6.0 0.00 0.00 0.00 43 1014.5
20260506152004 76 27 4.0 8.0 0.00 0.00 0.00 43 1014.6
20260506151505 76 37 5.0 12.0 0.00 0.00 0.00 42 1014.3
20260506151004 76 35 6.0 12.0 0.00 0.00 0.00 41 1014.3
20260506150005 77 37 5.0 12.0 0.00 0.00 0.00 39 1014.2
20260506145503 77 43 6.0 11.0 0.00 0.00 0.00 37 1014.4
20260506145004 78 42 6.0 11.0 0.00 0.00 0.00 36 1014.4
20260506144504 78 45 6.0 11.0 0.00 0.00 0.00 36 1014.6
20260506144004 79 37 6.0 12.0 0.00 0.00 0.00 35 1014.4
20260506143504 79 29 6.0 13.0 0.00 0.00 0.00 32 1014.5
20260506143004 79 44 6.0 13.0 0.00 0.00 0.00 32 1014.5
20260506142004 80 44 6.0 12.0 0.00 0.00 0.00 32 1014.5
20260506141505 80 63 6.0 11.0 0.00 0.00 0.00 32 1014.3
20260506140503 81 49 6.0 12.0 0.00 0.00 0.00 29 1014.5
20260506140005 81 50 6.0 13.0 0.00 0.00 0.00 28 1014.4
20260506135503 81 66 6.0 13.0 0.00 0.00 0.00 27 1014.5
20260506135004 81 70 6.0 11.0 0.00 0.00 0.00 24 1014.5
20260506134504 81 71 6.0 13.0 0.00 0.00 0.00 23 1014.3
20260506134004 81 62 6.0 13.0 0.00 0.00 0.00 24 1014.4
20260506133503 82 67 6.0 11.0 0.00 0.00 0.00 24 1014.6
20260506133004 82 64 6.0 12.0 0.00 0.00 0.00 23 1014.6
20260506132504 82 64 6.0 12.0 0.00 0.00 0.00 22 1014.6
20260506131504 82 55 6.0 11.0 0.00 0.00 0.00 22 1014.6
20260506130504 82 32 6.0 11.0 0.00 0.00 0.00 24 1014.5
20260506130005 82 43 5.0 11.0 0.00 0.00 0.00 23 1014.6
20260506125004 82 71 6.0 10.0 0.00 0.00 0.00 23 1015.0
20260506124504 81 71 6.0 10.0 0.00 0.00 0.00 23 1014.9
20260506124004 82 46 6.0 12.0 0.00 0.00 0.00 22 1014.7
20260506123504 82 30 6.0 13.0 0.00 0.00 0.00 21 1015.0
20260506123004 82 29 6.0 13.0 0.00 0.00 0.00 23 1015.1
20260506122003 82 24 5.0 10.0 0.00 0.00 0.00 21 1015.1
20260506121504 83 35 5.0 10.0 0.00 0.00 0.00 20 1015.1
20260506121003 83 30 6.0 13.0 0.00 0.00 0.00 21 1015.3
20260506120503 83 26 6.0 13.0 0.00 0.00 0.00 21 1015.1
20260506120004 83 36 5.0 12.0 0.00 0.00 0.00 21 1015.2
20260506115004 83 46 5.0 11.0 0.00 0.00 0.00 20 1015.1
20260506114504 82 49 5.0 11.0 0.00 0.00 0.00 21 1015.1
20260506114003 82 55 5.0 12.0 0.00 0.00 0.00 21 1015.4
20260506113504 82 55 5.0 13.0 0.00 0.00 0.00 21 1015.3
20260506113005 82 52 5.0 13.0 0.00 0.00 0.00 21 1015.5
20260506112504 82 44 6.0 11.0 0.00 0.00 0.00 20 1015.2
20260506112003 81 27 6.0 10.0 0.00 0.00 0.00 22 1015.3
20260506111504 81 46 6.0 11.0 0.00 0.00 0.00 22 1015.5
20260506111004 81 44 5.0 11.0 0.00 0.00 0.00 20 1015.7
20260506110504 81 32 5.0 11.0 0.00 0.00 0.00 21 1015.5
20260506110004 81 59 6.0 11.0 0.00 0.00 0.00 21 1015.5
20260506105503 81 68 6.0 12.0 0.00 0.00 0.00 21 1015.6
20260506105004 81 51 6.0 12.0 0.00 0.00 0.00 21 1015.5
20260506104504 81 49 6.0 13.0 0.00 0.00 0.00 21 1015.3
20260506104003 81 37 5.0 13.0 0.00 0.00 0.00 22 1015.7
20260506103504 81 33 5.0 13.0 0.00 0.00 0.00 22 1015.5
20260506103005 81 42 5.0 12.0 0.00 0.00 0.00 22 1015.6
20260506102504 81 22 5.0 12.0 0.00 0.00 0.00 23 1015.6
20260506102003 81 5 6.0 12.0 0.00 0.00 0.00 25 1015.9
20260506101504 81 17 5.0 13.0 0.00 0.00 0.00 26 1015.7
20260506100503 81 49 5.0 13.0 0.00 0.00 0.00 28 1015.7
20260506100005 81 46 5.0 11.0 0.00 0.00 0.00 29 1015.6
20260506095503 81 23 5.0 11.0 0.00 0.00 0.00 29 1015.8
20260506095004 81 14 6.0 12.0 0.00 0.00 0.00 29 1015.7
20260506094004 81 24 5.0 9.0 0.00 0.00 0.00 28 1016.0
20260506093004 82 30 3.0 8.0 0.00 0.00 0.00 28 1016.1
20260506092503 82 8 3.0 7.0 0.00 0.00 0.00 28 1016.0
20260506091504 83 30 3.0 7.0 0.00 0.00 0.00 27 1016.0
20260506091003 83 5 2.0 6.0 0.00 0.00 0.00 29 1016.2
20260506090504 82 71 2.0 6.0 0.00 0.00 0.00 28 1016.1
20260506090004 82 176 3.0 7.0 0.00 0.00 0.00 25 1016.1
20260506085504 83 221 3.0 7.0 0.00 0.00 0.00 25 1016.2
20260506085003 83 131 1.0 5.0 0.00 0.00 0.00 27 1016.2
20260506084504 82 157 1.0 4.0 0.00 0.00 0.00 29 1016.0
20260506084004 81 226 2.0 7.0 0.00 0.00 0.00 28 1016.1
20260506083503 82 218 2.0 7.0 0.00 0.00 0.00 27 1016.1
20260506083004 82 178 1.0 6.0 0.00 0.00 0.00 28 1016.1
20260506082504 82 210 1.0 6.0 0.00 0.00 0.00 29 1016.0
20260506082004 81 282 1.0 9.0 0.00 0.00 0.00 31 1016.3
20260506081504 81 277 1.0 9.0 0.00 0.00 0.00 31 1016.3
20260506081003 80 232 2.0 5.0 0.00 0.00 0.00 31 1016.1
20260506080504 79 251 2.0 5.0 0.00 0.00 0.00 32 1016.2
20260506073504 77 316 1.0 4.0 0.00 0.00 0.00 41 1016.0
20260506072503 76 269 1.0 5.0 0.00 0.00 0.00 41 1016.0
20260506072004 76 272 1.0 4.0 0.00 0.00 0.00 44 1015.9
20260506071504 75 274 1.0 4.0 0.00 0.00 0.00 46 1016.1
20260506071003 74 237 1.0 4.0 0.00 0.00 0.00 46 1016.1
20260506070504 73 209 2.0 7.0 0.00 0.00 0.00 47 1015.9
20260506062004 68 207 2.0 4.0 0.00 0.00 0.00 58 1016.2
20260506061504 68 225 1.0 4.0 0.00 0.00 0.00 59 1016.3
20260506061003 67 217 2.0 4.0 0.00 0.00 0.00 60 1016.2
20260506060504 66 216 2.0 4.0 0.00 0.00 0.00 61 1016.0
20260506051004 63 239 1.0 4.0 0.00 0.00 0.00 67 1016.1
20260506050503 62 226 1.0 5.0 0.00 0.00 0.00 67 1016.1
20260506044504 60 221 0.0 4.0 0.00 0.00 0.00 70 1015.8
20260506043503 59 231 1.0 4.0 0.00 0.00 0.00 71 1015.6
20260506043004 58 231 1.0 4.0 0.00 0.00 0.00 71 1015.7
20260506042504 58 230 1.0 4.0 0.00 0.00 0.00 71 1015.7
20260506042004 57 250 0.0 4.0 0.00 0.00 0.00 72 1016.0
20260506041504 57 249 0.0 4.0 0.00 0.00 0.00 72 1015.8
20260506041004 56 231 1.0 4.0 0.00 0.00 0.00 71 1015.7
20260506040503 56 233 1.0 4.0 0.00 0.00 0.00 71 1015.6
20260506040004 56 243 0.0 4.0 0.00 0.00 0.00 72 1015.6
20260506035504 56 266 0.0 4.0 0.00 0.00 0.00 72 1015.6
20260506035003 56 249 1.0 4.0 0.00 0.00 0.00 72 1015.6
20260506034505 55 237 1.0 5.0 0.00 0.00 0.00 73 1015.4
20260506034004 55 263 1.0 5.0 0.00 0.00 0.00 73 1015.5
20260506033503 55 271 1.0 4.0 0.00 0.00 0.00 73 1015.3
20260506033005 55 273 0.0 4.0 0.00 0.00 0.00 73 1015.4
20260506032503 55 250 1.0 4.0 0.00 0.00 0.00 74 1015.3
20260506031504 54 252 0.0 4.0 0.00 0.00 0.00 75 1015.2
20260506031003 54 247 0.0 4.0 0.00 0.00 0.00 75 1015.2
20260506030004 54 265 1.0 4.0 0.00 0.00 0.00 76 1015.3
20260506025504 54 285 1.0 4.0 0.00 0.00 0.00 76 1015.1
20260506025003 53 289 1.0 3.0 0.00 0.00 0.00 76 1015.2
20260506024504 53 279 0.0 4.0 0.00 0.00 0.00 76 1015.1
20260506023504 53 234 0.0 3.0 0.00 0.00 0.00 77 1015.2
20260506023004 53 236 1.0 3.0 0.00 0.00 0.00 77 1015.3
20260506022504 53 223 1.0 4.0 0.00 0.00 0.00 77 1015.3
20260506022004 52 223 1.0 4.0 0.00 0.00 0.00 77 1015.2
20260506021003 52 219 0.0 4.0 0.00 0.00 0.00 77 1015.4
20260506020503 52 194 0.0 2.0 0.00 0.00 0.00 77 1015.2
20260506020004 52 181 0.0 1.0 0.00 0.00 0.00 77 1015.5
20260506015504 52 191 0.0 2.0 0.00 0.00 0.00 77 1015.4
20260506015005 52 200 0.0 3.0 0.00 0.00 0.00 77 1015.3
20260506014004 51 200 1.0 4.0 0.00 0.00 0.00 77 1015.3
20260506013504 51 225 0.0 3.0 0.00 0.00 0.00 76 1015.5
20260506013004 51 0 0.0 0.0 0.00 0.00 0.00 76 1015.3
20260506012504 51 0 0.0 0.0 0.00 0.00 0.00 75 1015.4
20260506012003 51 0 0.0 0.0 0.00 0.00 0.00 75 1015.3
20260506011004 52 0 0.0 0.0 0.00 0.00 0.00 75 1015.4
20260506010503 52 93 0.0 3.0 0.00 0.00 0.00 75 1015.4
20260506010004 52 59 0.0 3.0 0.00 0.00 0.00 75 1015.4
20260506005503 52 64 0.0 3.0 0.00 0.00 0.00 75 1015.5
20260506005004 52 109 0.0 2.0 0.00 0.00 0.00 74 1015.5
20260506004004 52 162 0.0 3.0 0.00 0.00 0.00 74 1015.4
20260506003504 53 177 0.0 3.0 0.00 0.00 0.00 75 1015.3
20260506003004 53 185 0.0 3.0 0.00 0.00 0.00 75 1015.3
20260506002504 53 181 0.0 4.0 0.00 0.00 0.00 76 1015.5
20260506002004 52 169 0.0 4.0 0.00 0.00 0.00 76 1015.4
20260506001504 52 83 0.0 1.0 0.00 0.00 0.00 75 1015.5
20260506001004 52 0 0.0 0.0 0.00 0.00 0.00 75 1015.3
20260506000504 52 0 0.0 0.0 0.00 0.00 0.00 75 1015.5
20260506000004 53 341 0.0 3.0 0.00 0.00 0.00 74 1015.3
20260505235503 53 340 0.0 3.0 0.00 0.00 0.00 74 1015.4
20260505235004 53 278 0.0 3.0 0.00 0.00 0.00 74 1015.3
20260505234504 53 131 0.0 3.0 0.00 0.00 0.00 74 1015.5
20260505233503 53 107 0.0 3.0 0.00 0.00 0.00 73 1015.4
20260505233005 53 104 0.0 3.0 0.00 0.00 0.00 73 1015.6
20260505232504 53 93 1.0 3.0 0.00 0.00 0.00 73 1015.5
20260505232003 53 104 1.0 3.0 0.00 0.00 0.00 72 1015.4
20260505231504 53 132 0.0 3.0 0.00 0.00 0.00 72 1015.6
20260505230004 54 55 0.0 2.0 0.00 0.00 0.00 71 1015.6
20260505225504 54 219 0.0 2.0 0.00 0.00 0.00 71 1015.8
20260505224504 54 218 1.0 4.0 0.00 0.00 0.00 71 1015.5
20260505224003 54 237 1.0 4.0 0.00 0.00 0.00 71 1015.6
20260505223504 54 245 0.0 3.0 0.00 0.00 0.00 70 1015.7
20260505223004 54 217 0.0 1.0 0.00 0.00 0.00 69 1015.6